This demonstration page uses our WeatherBlox Daily Observations layout. Learn more.

Left ArrowRight Arrow

Hourly Observations for July 22, 2018

Temp ( °F °C ) Dew Point ( °F °C ) Humidity (%) Winds ( mph kmh ) Pressure ( in mb ) Visibility ( mi km ) Precip ( " mm )
12:04 am 00:04 Cloudy 68 20 68 20 100 100 NNW 10 17 29.71 1006 10 16.0934 N/A
12:22 am 00:22 Cloudy 68 20 68 20 100 100 NW 12 19 29.71 1006 10 16.0934 N/A
12:42 am 00:42 Cloudy 68 20 68 20 100 100 NNW 12 19 29.71 1006 10 16.0934 N/A
1:08 am 01:08 Cloudy 68 20 68 20 100 100 NNW 10 17 29.71 1006 10 16.0934 N/A
1:23 am 01:23 Cloudy 68 20 68 20 100 100 NW 10 17 29.71 1006 10 16.0934 N/A
1:42 am 01:42 Cloudy 68 20 68 20 100 100 NW 10 17 29.71 1006 10 16.0934 N/A
2:06 am 02:06 Cloudy 68 20 68 20 100 100 NNW 7 11 29.68 1005 2.5 4.02335 N/A
2:24 am 02:24 Cloudy 68 20 68 20 100 100 N 6 9 29.68 1005 4 6.43736 N/A
2:44 am 02:44 Cloudy 68 20 68 20 100 100 NNW 8 13 29.68 1005 4 6.43736 N/A
3:02 am 03:02 Cloudy 68 20 68 20 100 100 NNW 8 13 29.68 1005 10 16.0934 N/A
3:35 am 03:35 Cloudy 68 20 68 20 100 100 NNW 9 15 29.68 1005 10 16.0934 N/A
3:43 am 03:43 Cloudy 68 20 68 20 100 100 NNW 8 13 29.68 1005 10 16.0934 N/A
4:02 am 04:02 Cloudy 68 20 68 20 100 100 NNW 9 15 29.68 1005 10 16.0934 N/A
4:30 am 04:30 Cloudy 68 20 68 20 100 100 N 8 13 29.68 1005 10 16.0934 N/A
4:53 am 04:53 Cloudy 68 20 68 20 100 100 N 7 11 29.68 1005 10 16.0934 N/A
5:02 am 05:02 Cloudy 68 20 68 20 100 100 NNW 8 13 29.68 1005 7 11.26538 N/A
5:27 am 05:27 Cloudy 68 20 68 20 100 100 NNW 7 11 29.68 1005 5 8.0467 N/A
5:44 am 05:44 Cloudy 68 20 68 20 100 100 NNW 7 11 29.68 1005 10 16.0934 N/A
6:05 am 06:05 Cloudy 68 20 68 20 100 100 N 8 13 29.68 1005 10 16.0934 N/A
6:26 am 06:26 Cloudy 68 20 68 20 100 100 N 8 13 29.68 1005 5 8.0467 N/A
6:42 am 06:42 Cloudy 68 20 68 20 100 100 N 8 13 29.68 1005 5 8.0467 N/A
7:06 am 07:06 Cloudy 68 20 68 20 100 100 N 9 15 29.71 1006 7 11.26538 N/A
7:24 am 07:24 Cloudy 68 20 68 20 100 100 N 8 13 29.71 1006 7 11.26538 N/A
7:43 am 07:43 Cloudy 68 20 68 20 100 100 N 9 15 29.71 1006 5 8.0467 N/A
8:02 am 08:02 Cloudy 68 20 68 20 100 100 N 10 17 29.71 1006 4 6.43736 N/A
8:23 am 08:23 Cloudy 68 20 68 20 100 100 N 9 15 29.71 1006 4 6.43736 N/A
8:42 am 08:42 Cloudy 68 20 68 20 100 100 N 10 17 29.71 1006 5 8.0467 N/A
9:05 am 09:05 Cloudy 68 20 68 20 100 100 N 7 11 29.74 1007 2.5 4.02335 N/A
9:25 am 09:25 Cloudy 68 20 68 20 100 100 N 7 11 29.74 1007 5 8.0467 N/A
9:44 am 09:44 Mostly Cloudy 70 21 70 21 100 100 NNE 10 17 29.74 1007 7 11.26538 N/A
10:03 am 10:03 Cloudy 70 21 70 21 100 100 NNE 10 17 29.74 1007 10 16.0934 N/A
10:22 am 10:22 Cloudy 70 21 70 21 100 100 N 7 11 29.74 1007 10 16.0934 N/A
10:43 am 10:43 Cloudy 72 22 72 22 100 100 NNE 9 15 29.74 1007 10 16.0934 N/A
11:04 am 11:04 Cloudy 72 22 72 22 100 100 NNE 7 11 29.74 1007 10 16.0934 N/A
11:22 am 11:22 Cloudy 73 23 72 22 94 94 NE 10 17 29.74 1007 10 16.0934 N/A
11:46 am 11:46 Cloudy 73 23 72 22 94 94 NNE 12 19 29.74 1007 10 16.0934 N/A
12:04 pm 12:04 Cloudy 73 23 72 22 94 94 NNE 13 20 29.74 1007 10 16.0934 N/A
12:25 pm 12:25 Mostly Cloudy 75 24 72 22 89 89 NNE 10 17 29.74 1007 10 16.0934 N/A
12:46 pm 12:46 Mostly Cloudy 77 25 72 22 83 83 NNE 9 15 29.74 1007 10 16.0934 N/A
1:04 pm 13:04 Mostly Cloudy 77 25 72 22 83 83 NE 10 17 29.74 1007 10 16.0934 N/A
1:24 pm 13:24 Mostly Cloudy 75 24 73 23 94 94 ENE 10 17 29.77 1008 10 16.0934 N/A
1:42 pm 13:42 Mostly Cloudy 73 23 72 22 94 94 NNE 10 17 29.74 1007 10 16.0934 N/A
2:03 pm 14:03 Mostly Cloudy 77 25 73 23 89 89 NE 8 13 29.74 1007 10 16.0934 N/A
2:23 pm 14:23 Partly Cloudy 79 26 72 22 79 79 NE 13 20 29.74 1007 10 16.0934 N/A
2:43 pm 14:43 Mostly Cloudy 77 25 72 22 83 83 ENE 10 17 29.74 1007 10 16.0934 N/A
3:06 pm 15:06 Partly Cloudy 77 25 72 22 83 83 NNE 12 19 29.74 1007 10 16.0934 N/A
3:23 pm 15:23 Partly Cloudy 77 25 72 22 83 83 NNE 9 15 29.74 1007 10 16.0934 N/A
3:42 pm 15:42 Sunny 77 25 72 22 83 83 NNE 7 11 29.74 1007 10 16.0934 N/A
4:02 pm 16:02 Mostly Cloudy 75 24 72 22 89 89 N 9 15 29.74 1007 7 11.26538 N/A
4:25 pm 16:25 Mostly Cloudy 75 24 72 22 89 89 NNW 8 13 29.74 1007 10 16.0934 N/A
4:43 pm 16:43 Mostly Cloudy 75 24 72 22 89 89 N 5 7 29.74 1007 10 16.0934 N/A
5:04 pm 17:04 Partly Cloudy 75 24 72 22 89 89 N 15 24 29.74 1007 10 16.0934 N/A
5:24 pm 17:24 Mostly Cloudy 72 22 72 22 100 100 N 13 20 29.77 1008 7 11.26538 N/A
5:46 pm 17:46 Sunny 72 22 72 22 100 100 N 8 13 29.77 1008 10 16.0934 N/A
6:03 pm 18:03 Sunny 73 23 73 23 100 100 N 10 17 29.77 1008 10 16.0934 N/A
6:22 pm 18:22 Sunny 75 24 72 22 89 89 NNE 10 17 29.77 1008 10 16.0934 N/A
6:43 pm 18:43 Sunny 77 25 72 22 83 83 N 9 15 29.77 1008 10 16.0934 N/A
7:04 pm 19:04 Sunny 77 25 72 22 83 83 NNE 9 15 29.77 1008 10 16.0934 N/A
7:24 pm 19:24 Sunny 75 24 72 22 89 89 N 8 13 29.77 1008 10 16.0934 N/A
7:44 pm 19:44 Partly Cloudy 73 23 70 21 89 89 NE 6 9 29.77 1008 10 16.0934 N/A
8:02 pm 20:02 Mostly Cloudy 75 24 70 21 83 83 NNE 9 15 29.8 1009 10 16.0934 N/A
8:24 pm 20:24 Mostly Cloudy 72 22 68 20 88 88 N 8 13 29.8 1009 10 16.0934 N/A
8:49 pm 20:49 Mostly Cloudy 72 22 68 20 88 88 NNE 9 15 29.8 1009 10 16.0934 N/A
9:04 pm 21:04 Mostly Cloudy 72 22 68 20 88 88 NNE 13 20 29.83 1010 10 16.0934 N/A
9:24 pm 21:24 Cloudy 70 21 68 20 94 94 N 7 11 29.83 1010 10 16.0934 N/A
9:43 pm 21:43 Cloudy 70 21 66 19 88 88 N 7 11 29.85 1011 10 16.0934 N/A
10:03 pm 22:03 Partly Cloudy 68 20 66 19 94 94 N 6 9 29.85 1011 10 16.0934 N/A
10:23 pm 22:23 Partly Cloudy 68 20 66 19 94 94 N 7 11 29.85 1011 10 16.0934 N/A
10:42 pm 22:42 Mostly Cloudy 68 20 66 19 94 94 N 7 11 29.85 1011 10 16.0934 N/A
11:05 pm 23:05 Partly Cloudy 66 19 66 19 100 100 N 7 11 29.88 1012 10 16.0934 N/A
11:22 pm 23:22 Clear 66 19 66 19 100 100 N 7 11 29.88 1012 10 16.0934 N/A
11:47 pm 23:47 Partly Cloudy 64 18 64 18 100 100 NNE 7 11 29.88 1012 10 16.0934 N/A

Powered by AerisWeather